| time (UTC) | temp C | wind direction | speed KPH | gust KPH | rain 1hr cm | rain 24hr cm | rain mn cm | humidity % | barometer mb |
| 20260902093815 | 15 | 197 | 4.8 | 11.3 | 0.00 | 0.00 | 0.00 | 89 | 1015.3 |
| 20260902093315 | 15 | 200 | 4.8 | 8.0 | 0.00 | 0.00 | 0.00 | 89 | 1015.4 |
| 20260902092815 | 15 | 194 | 4.8 | 8.0 | 0.00 | 0.00 | 0.00 | 89 | 1015.4 |
| 20260902092314 | 15 | 175 | 4.8 | 8.0 | 0.00 | 0.00 | 0.00 | 89 | 1015.4 |
| 20260902091815 | 15 | 214 | 8.0 | 14.5 | 0.00 | 0.00 | 0.00 | 89 | 1015.4 |
| 20260902091315 | 15 | 207 | 8.0 | 12.9 | 0.00 | 0.00 | 0.00 | 89 | 1015.4 |
| 20260902090315 | 15 | 186 | 4.8 | 9.7 | 0.00 | 0.00 | 0.00 | 89 | 1015.4 |
| 20260902085815 | 15 | 225 | 4.8 | 11.3 | 0.00 | 0.00 | 0.00 | 89 | 1015.4 |
| 20260902085315 | 15 | 201 | 4.8 | 11.3 | 0.00 | 0.00 | 0.00 | 89 | 1015.5 |
| 20260902084815 | 15 | 184 | 3.2 | 9.7 | 0.00 | 0.00 | 0.00 | 89 | 1015.4 |
| 20260902083815 | 15 | 217 | 3.2 | 8.0 | 0.00 | 0.00 | 0.00 | 89 | 1015.5 |
| 20260902083315 | 15 | 194 | 4.8 | 8.0 | 0.00 | 0.00 | 0.00 | 89 | 1015.4 |
| 20260902082816 | 15 | 205 | 3.2 | 8.0 | 0.00 | 0.00 | 0.00 | 89 | 1015.4 |
| 20260902082314 | 14 | 196 | 4.8 | 9.7 | 0.00 | 0.00 | 0.00 | 89 | 1015.4 |
| 20260902081815 | 14 | 187 | 3.2 | 9.7 | 0.00 | 0.00 | 0.00 | 89 | 1015.5 |
| 20260902080815 | 14 | 267 | 4.8 | 9.7 | 0.00 | 0.00 | 0.00 | 89 | 1015.5 |
| 20260902080315 | 14 | 244 | 3.2 | 4.8 | 0.00 | 0.00 | 0.00 | 88 | 1015.5 |
| 20260902075814 | 14 | 237 | 8.0 | 14.5 | 0.00 | 0.00 | 0.00 | 88 | 1015.5 |
| 20260902074815 | 14 | 288 | 3.2 | 8.0 | 0.00 | 0.00 | 0.00 | 89 | 1015.5 |
| 20260902074314 | 14 | 215 | 3.2 | 4.8 | 0.00 | 0.00 | 0.00 | 89 | 1015.4 |
| 20260902073814 | 14 | 196 | 3.2 | 9.7 | 0.00 | 0.00 | 0.00 | 89 | 1015.5 |
| 20260902073315 | 14 | 220 | 1.6 | 4.8 | 0.00 | 0.00 | 0.00 | 89 | 1015.4 |
| 20260902072815 | 14 | 226 | 4.8 | 8.0 | 0.00 | 0.00 | 0.00 | 89 | 1015.3 |
| 20260902072316 | 14 | 270 | 4.8 | 8.0 | 0.00 | 0.00 | 0.00 | 89 | 1015.3 |
| 20260902071315 | 14 | 162 | 3.2 | 9.7 | 0.00 | 0.00 | 0.00 | 89 | 1015.3 |
| 20260902070815 | 14 | 154 | 3.2 | 8.0 | 0.00 | 0.00 | 0.00 | 89 | 1015.3 |
| 20260902070315 | 13 | 210 | 3.2 | 8.0 | 0.00 | 0.00 | 0.00 | 89 | 1015.3 |
| 20260902065314 | 13 | 181 | 3.2 | 8.0 | 0.00 | 0.00 | 0.00 | 89 | 1015.2 |
| 20260902064815 | 13 | 176 | 1.6 | 4.8 | 0.00 | 0.00 | 0.00 | 89 | 1015.2 |
| 20260902063814 | 13 | 209 | 4.8 | 9.7 | 0.00 | 0.00 | 0.00 | 89 | 1015.2 |
| 20260902063314 | 13 | 217 | 3.2 | 8.0 | 0.00 | 0.00 | 0.00 | 89 | 1015.1 |
| 20260902062815 | 13 | 217 | 4.8 | 9.7 | 0.00 | 0.00 | 0.00 | 90 | 1015.2 |
| 20260902062314 | 13 | 194 | 4.8 | 9.7 | 0.00 | 0.00 | 0.00 | 90 | 1015.2 |
| 20260902061814 | 13 | 194 | 4.8 | 11.3 | 0.00 | 0.00 | 0.00 | 90 | 1015.2 |
| 20260902061315 | 13 | 197 | 1.6 | 4.8 | 0.00 | 0.00 | 0.00 | 90 | 1015.3 |
| 20260902060815 | 13 | 229 | 4.8 | 9.7 | 0.00 | 0.00 | 0.00 | 90 | 1015.2 |
| 20260902055815 | 13 | 183 | 6.4 | 11.3 | 0.00 | 0.00 | 0.00 | 90 | 1015.0 |
| 20260902055315 | 13 | 184 | 3.2 | 8.0 | 0.00 | 0.00 | 0.00 | 90 | 1015.0 |
| 20260902054815 | 13 | 181 | 1.6 | 4.8 | 0.00 | 0.00 | 0.00 | 90 | 1014.9 |
| 20260902054314 | 13 | 135 | 1.6 | 3.2 | 0.00 | 0.00 | 0.00 | 90 | 1014.9 |
| 20260902053815 | 13 | 135 | 0.0 | 3.2 | 0.00 | 0.00 | 0.00 | 90 | 1014.9 |
| 20260902053315 | 13 | 135 | 0.0 | 3.2 | 0.00 | 0.00 | 0.00 | 90 | 1015.0 |
| 20260902052815 | 13 | 135 | 0.0 | 1.6 | 0.00 | 0.00 | 0.00 | 90 | 1015.0 |
| 20260902052314 | 13 | 135 | 1.6 | 3.2 | 0.00 | 0.00 | 0.00 | 89 | 1015.0 |
| 20260902051815 | 13 | 135 | 0.0 | 3.2 | 0.00 | 0.00 | 0.00 | 89 | 1014.9 |
| 20260902051314 | 13 | 135 | 1.6 | 4.8 | 0.00 | 0.00 | 0.00 | 89 | 1014.9 |
| 20260902050815 | 13 | 135 | 1.6 | 3.2 | 0.00 | 0.00 | 0.00 | 89 | 1015.0 |
| 20260902050316 | 13 | 135 | 1.6 | 3.2 | 0.00 | 0.00 | 0.00 | 89 | 1014.9 |
| 20260902045814 | 14 | 159 | 1.6 | 3.2 | 0.00 | 0.00 | 0.00 | 89 | 1014.9 |
| 20260902045315 | 14 | 271 | 1.6 | 3.2 | 0.00 | 0.00 | 0.00 | 89 | 1014.9 |
| 20260902044814 | 14 | 271 | 1.6 | 1.6 | 0.00 | 0.00 | 0.00 | 89 | 1014.9 |
| 20260902043315 | 14 | 271 | 0.0 | 1.6 | 0.00 | 0.00 | 0.00 | 89 | 1015.0 |
| 20260902042815 | 14 | 271 | 0.0 | 1.6 | 0.00 | 0.00 | 0.00 | 89 | 1015.0 |
| 20260902042314 | 14 | 271 | 0.0 | 3.2 | 0.00 | 0.00 | 0.00 | 89 | 1015.0 |
| 20260902041815 | 14 | 271 | 0.0 | 3.2 | 0.00 | 0.00 | 0.00 | 88 | 1015.0 |
| 20260902041314 | 14 | 271 | 1.6 | 4.8 | 0.00 | 0.00 | 0.00 | 88 | 1015.0 |
| 20260902040814 | 14 | 204 | 1.6 | 4.8 | 0.00 | 0.00 | 0.00 | 88 | 1015.0 |
| 20260902035815 | 14 | 220 | 0.0 | 3.2 | 0.00 | 0.00 | 0.00 | 88 | 1015.0 |
| 20260902035314 | 14 | 220 | 1.6 | 3.2 | 0.00 | 0.00 | 0.00 | 88 | 1015.0 |
| 20260902034815 | 14 | 220 | 1.6 | 3.2 | 0.00 | 0.00 | 0.00 | 88 | 1015.0 |
| 20260902034315 | 14 | 220 | 1.6 | 4.8 | 0.00 | 0.00 | 0.00 | 88 | 1014.9 |
| 20260902033814 | 14 | 200 | 1.6 | 3.2 | 0.00 | 0.00 | 0.00 | 88 | 1015.0 |
| 20260902032815 | 14 | 200 | 0.0 | 1.6 | 0.00 | 0.00 | 0.00 | 89 | 1015.0 |
| 20260902032314 | 14 | 200 | 3.2 | 4.8 | 0.00 | 0.00 | 0.00 | 89 | 1015.0 |
| 20260902031815 | 13 | 212 | 3.2 | 4.8 | 0.00 | 0.00 | 0.00 | 89 | 1015.0 |
| 20260902031314 | 13 | 211 | 1.6 | 3.2 | 0.00 | 0.00 | 0.00 | 89 | 1015.0 |
| 20260902030815 | 13 | 211 | 1.6 | 4.8 | 0.00 | 0.00 | 0.00 | 89 | 1015.0 |
| 20260902030314 | 13 | 236 | 1.6 | 3.2 | 0.00 | 0.00 | 0.00 | 88 | 1015.0 |
| 20260902025814 | 13 | 236 | 0.0 | 1.6 | 0.00 | 0.00 | 0.00 | 88 | 1015.1 |
| 20260902025315 | 13 | 236 | 0.0 | 3.2 | 0.00 | 0.00 | 0.00 | 88 | 1015.1 |
| 20260902024815 | 13 | 236 | 0.0 | 3.2 | 0.00 | 0.00 | 0.00 | 88 | 1015.3 |
| 20260902024315 | 13 | 236 | 1.6 | 1.6 | 0.00 | 0.00 | 0.00 | 87 | 1015.4 |
| 20260902023814 | 13 | 236 | 3.2 | 4.8 | 0.00 | 0.00 | 0.00 | 87 | 1015.4 |
| 20260902023315 | 13 | 236 | 1.6 | 4.8 | 0.00 | 0.00 | 0.00 | 87 | 1015.4 |
| 20260902022814 | 13 | 271 | 1.6 | 4.8 | 0.00 | 0.00 | 0.00 | 87 | 1015.4 |
| 20260902022314 | 13 | 245 | 1.6 | 4.8 | 0.00 | 0.00 | 0.00 | 87 | 1015.5 |
| 20260902021814 | 14 | 245 | 3.2 | 4.8 | 0.00 | 0.00 | 0.00 | 86 | 1015.5 |
| 20260902021314 | 14 | 263 | 1.6 | 4.8 | 0.00 | 0.00 | 0.00 | 86 | 1015.5 |
| 20260902020815 | 14 | 257 | 3.2 | 9.7 | 0.00 | 0.00 | 0.00 | 85 | 1015.6 |
| 20260902020314 | 14 | 212 | 4.8 | 11.3 | 0.00 | 0.00 | 0.00 | 85 | 1015.7 |
| 20260902015815 | 14 | 220 | 6.4 | 9.7 | 0.00 | 0.00 | 0.00 | 85 | 1015.7 |
| 20260902015314 | 14 | 197 | 3.2 | 4.8 | 0.00 | 0.00 | 0.00 | 85 | 1015.6 |
| 20260902014315 | 14 | 207 | 3.2 | 4.8 | 0.00 | 0.00 | 0.00 | 85 | 1015.6 |
| 20260902013814 | 15 | 206 | 3.2 | 4.8 | 0.00 | 0.00 | 0.00 | 85 | 1015.6 |
| 20260902013314 | 15 | 206 | 0.0 | 3.2 | 0.00 | 0.00 | 0.00 | 85 | 1015.7 |
| 20260902012814 | 14 | 206 | 0.0 | 3.2 | 0.00 | 0.00 | 0.00 | 85 | 1015.7 |
| 20260902012314 | 14 | 206 | 1.6 | 4.8 | 0.00 | 0.00 | 0.00 | 85 | 1015.6 |
| 20260902011815 | 14 | 153 | 4.8 | 12.9 | 0.00 | 0.00 | 0.00 | 85 | 1015.7 |
| 20260902011316 | 14 | 21 | 0.0 | 3.2 | 0.00 | 0.00 | 0.00 | 85 | 1015.7 |
| 20260902010815 | 14 | 27 | 3.2 | 4.8 | 0.00 | 0.00 | 0.00 | 84 | 1015.7 |
| 20260902010314 | 14 | 106 | 1.6 | 3.2 | 0.00 | 0.00 | 0.00 | 84 | 1015.7 |
| 20260902005816 | 15 | 213 | 3.2 | 9.7 | 0.00 | 0.00 | 0.00 | 84 | 1015.6 |
| 20260902004815 | 15 | 225 | 0.0 | 3.2 | 0.00 | 0.00 | 0.00 | 83 | 1015.6 |
| 20260902004315 | 15 | 225 | 1.6 | 3.2 | 0.00 | 0.00 | 0.00 | 83 | 1015.8 |
| 20260902003814 | 15 | 225 | 0.0 | 3.2 | 0.00 | 0.00 | 0.00 | 83 | 1015.7 |
| 20260902003314 | 15 | 225 | 4.8 | 8.0 | 0.00 | 0.00 | 0.00 | 83 | 1015.8 |
| 20260902002815 | 15 | 240 | 3.2 | 8.0 | 0.00 | 0.00 | 0.00 | 83 | 1015.8 |
| 20260902001814 | 15 | 221 | 4.8 | 35.4 | 0.00 | 0.00 | 0.00 | 83 | 1015.8 |
| 20260902000815 | 15 | 215 | 4.8 | 9.7 | 0.00 | 0.00 | 0.00 | 83 | 1015.9 |
| 20260902000314 | 15 | 263 | 3.2 | 8.0 | 0.00 | 0.00 | 0.00 | 83 | 1015.9 |
| 20260901235814 | 15 | 230 | 4.8 | 11.3 | 0.00 | 0.00 | 0.00 | 82 | 1015.9 |
| 20260901235314 | 15 | 249 | 8.0 | 9.7 | 0.00 | 0.00 | 0.00 | 82 | 1015.9 |
| 20260901234814 | 15 | 251 | 8.0 | 11.3 | 0.00 | 0.00 | 0.00 | 82 | 1016.0 |
| 20260901234314 | 15 | 237 | 4.8 | 12.9 | 0.00 | 0.00 | 0.00 | 82 | 1015.9 |
| 20260901233815 | 15 | 222 | 8.0 | 14.5 | 0.00 | 0.00 | 0.00 | 82 | 1015.8 |
| 20260901233313 | 15 | 231 | 4.8 | 12.9 | 0.00 | 0.00 | 0.00 | 82 | 1015.8 |
| 20260901232814 | 15 | 219 | 9.7 | 12.9 | 0.00 | 0.00 | 0.00 | 82 | 1015.8 |
| 20260901232314 | 15 | 260 | 6.4 | 19.3 | 0.00 | 0.00 | 0.00 | 82 | 1015.8 |
| 20260901231815 | 15 | 229 | 6.4 | 11.3 | 0.00 | 0.00 | 0.00 | 82 | 1015.9 |
| 20260901231314 | 15 | 248 | 4.8 | 9.7 | 0.00 | 0.00 | 0.00 | 82 | 1015.9 |
| 20260901230855 | 15 | 243 | 4.8 | 11.3 | 0.00 | 0.00 | 0.00 | 81 | 1016.0 |
| 20260901230314 | 15 | 241 | 6.4 | 11.3 | 0.00 | 0.00 | 0.00 | 81 | 1016.0 |
| 20260901225814 | 15 | 222 | 4.8 | 11.3 | 0.00 | 0.00 | 0.00 | 81 | 1016.0 |
| 20260901225314 | 15 | 250 | 6.4 | 14.5 | 0.00 | 0.00 | 0.00 | 81 | 1016.1 |
| 20260901224815 | 15 | 234 | 4.8 | 11.3 | 0.00 | 0.00 | 0.00 | 81 | 1016.1 |
| 20260901224314 | 15 | 226 | 4.8 | 11.3 | 0.00 | 0.00 | 0.00 | 81 | 1016.1 |
| 20260901222814 | 15 | 216 | 6.4 | 11.3 | 0.00 | 0.00 | 0.00 | 80 | 1016.2 |
| 20260901222314 | 15 | 259 | 4.8 | 8.0 | 0.00 | 0.00 | 0.00 | 80 | 1016.2 |
| 20260901221814 | 15 | 261 | 3.2 | 4.8 | 0.00 | 0.00 | 0.00 | 80 | 1016.2 |
| 20260901221314 | 15 | 258 | 4.8 | 9.7 | 0.00 | 0.00 | 0.00 | 80 | 1016.2 |
| 20260901220814 | 15 | 280 | 3.2 | 11.3 | 0.00 | 0.00 | 0.00 | 79 | 1016.2 |
| 20260901215314 | 15 | 247 | 3.2 | 4.8 | 0.00 | 0.00 | 0.00 | 80 | 1016.2 |
| 20260901214314 | 16 | 216 | 4.8 | 9.7 | 0.00 | 0.00 | 0.00 | 80 | 1016.2 |
| 20260901213814 | 16 | 219 | 6.4 | 11.3 | 0.00 | 0.00 | 0.00 | 81 | 1016.2 |
| 20260901213314 | 16 | 232 | 3.2 | 11.3 | 0.00 | 0.00 | 0.00 | 81 | 1016.2 |
| 20260901212816 | 16 | 204 | 3.2 | 9.7 | 0.00 | 0.00 | 0.00 | 82 | 1016.2 |
| 20260901212314 | 16 | 207 | 4.8 | 11.3 | 0.00 | 0.00 | 0.00 | 82 | 1016.2 |
| 20260901211814 | 16 | 185 | 4.8 | 8.0 | 0.00 | 0.00 | 0.00 | 82 | 1016.2 |
| 20260901211314 | 16 | 168 | 1.6 | 4.8 | 0.00 | 0.00 | 0.00 | 83 | 1016.3 |
| 20260901210315 | 16 | 259 | 3.2 | 4.8 | 0.00 | 0.00 | 0.00 | 82 | 1016.3 |
| 20260901205815 | 16 | 269 | 1.6 | 4.8 | 0.00 | 0.00 | 0.00 | 82 | 1016.4 |
| 20260901205314 | 16 | 249 | 3.2 | 12.9 | 0.00 | 0.00 | 0.00 | 82 | 1016.3 |
| 20260901204814 | 16 | 247 | 4.8 | 11.3 | 0.00 | 0.00 | 0.00 | 83 | 1016.3 |
| 20260901204315 | 16 | 246 | 3.2 | 9.7 | 0.00 | 0.00 | 0.00 | 83 | 1016.3 |
| 20260901203813 | 16 | 213 | 4.8 | 9.7 | 0.00 | 0.00 | 0.00 | 83 | 1016.3 |
| 20260901203314 | 16 | 214 | 4.8 | 9.7 | 0.00 | 0.00 | 0.00 | 83 | 1016.3 |
| 20260901202815 | 16 | 214 | 3.2 | 8.0 | 0.00 | 0.00 | 0.00 | 83 | 1016.3 |
| 20260901202314 | 16 | 233 | 3.2 | 8.0 | 0.00 | 0.00 | 0.00 | 83 | 1016.2 |
| 20260901201815 | 16 | 240 | 3.2 | 11.3 | 0.00 | 0.00 | 0.00 | 83 | 1016.2 |
| 20260901201314 | 16 | 252 | 8.0 | 16.1 | 0.00 | 0.00 | 0.00 | 83 | 1016.2 |
| 20260901200815 | 16 | 251 | 8.0 | 11.3 | 0.00 | 0.00 | 0.00 | 83 | 1016.2 |
| 20260901200314 | 16 | 249 | 4.8 | 9.7 | 0.00 | 0.00 | 0.00 | 83 | 1016.2 |
| 20260901195814 | 16 | 232 | 8.0 | 14.5 | 0.00 | 0.00 | 0.00 | 82 | 1016.1 |
| 20260901195314 | 16 | 248 | 6.4 | 11.3 | 0.00 | 0.00 | 0.00 | 82 | 1016.0 |
| 20260901194814 | 16 | 218 | 4.8 | 12.9 | 0.00 | 0.00 | 0.00 | 82 | 1016.1 |
| 20260901194314 | 16 | 236 | 4.8 | 11.3 | 0.00 | 0.00 | 0.00 | 82 | 1016.1 |
| 20260901193814 | 16 | 253 | 8.0 | 12.9 | 0.00 | 0.00 | 0.00 | 82 | 1016.0 |
| 20260901193314 | 16 | 230 | 3.2 | 9.7 | 0.00 | 0.00 | 0.00 | 82 | 1016.0 |
| 20260901192314 | 16 | 241 | 8.0 | 12.9 | 0.00 | 0.00 | 0.00 | 82 | 1016.0 |
| 20260901191814 | 16 | 241 | 8.0 | 12.9 | 0.00 | 0.00 | 0.00 | 81 | 1015.9 |
| 20260901191314 | 16 | 249 | 6.4 | 11.3 | 0.00 | 0.00 | 0.00 | 81 | 1015.9 |
| 20260901190814 | 16 | 244 | 6.4 | 11.3 | 0.00 | 0.00 | 0.00 | 80 | 1015.9 |
| 20260901190314 | 16 | 244 | 8.0 | 12.9 | 0.00 | 0.00 | 0.00 | 80 | 1015.9 |
| 20260901185814 | 16 | 251 | 8.0 | 19.3 | 0.00 | 0.00 | 0.00 | 80 | 1015.9 |
| 20260901184814 | 16 | 239 | 8.0 | 14.5 | 0.00 | 0.00 | 0.00 | 79 | 1015.9 |
| 20260901184314 | 17 | 243 | 6.4 | 19.3 | 0.00 | 0.00 | 0.00 | 79 | 1015.9 |
| 20260901183814 | 17 | 245 | 9.7 | 14.5 | 0.00 | 0.00 | 0.00 | 78 | 1015.9 |
| 20260901181814 | 17 | 251 | 6.4 | 14.5 | 0.00 | 0.00 | 0.00 | 78 | 1016.0 |
| 20260901181314 | 17 | 253 | 6.4 | 12.9 | 0.00 | 0.00 | 0.00 | 78 | 1016.0 |
| 20260901180814 | 17 | 256 | 8.0 | 19.3 | 0.00 | 0.00 | 0.00 | 77 | 1016.0 |
| 20260901175814 | 17 | 247 | 9.7 | 16.1 | 0.00 | 0.00 | 0.00 | 77 | 1016.0 |
| 20260901174814 | 17 | 245 | 8.0 | 14.5 | 0.00 | 0.00 | 0.00 | 76 | 1015.9 |
| 20260901174314 | 17 | 254 | 6.4 | 11.3 | 0.00 | 0.00 | 0.00 | 75 | 1015.8 |
| 20260901173814 | 17 | 254 | 9.7 | 19.3 | 0.00 | 0.00 | 0.00 | 74 | 1015.8 |
| 20260901173314 | 17 | 251 | 8.0 | 19.3 | 0.00 | 0.00 | 0.00 | 74 | 1015.9 |
| 20260901172814 | 17 | 239 | 8.0 | 20.9 | 0.00 | 0.00 | 0.00 | 74 | 1015.9 |
| 20260901172314 | 17 | 253 | 8.0 | 14.5 | 0.00 | 0.00 | 0.00 | 73 | 1015.8 |
| 20260901171814 | 17 | 250 | 9.7 | 22.5 | 0.00 | 0.00 | 0.00 | 73 | 1015.9 |
| 20260901170814 | 17 | 251 | 9.7 | 19.3 | 0.00 | 0.00 | 0.00 | 73 | 1015.9 |
| 20260901170313 | 17 | 242 | 8.0 | 16.1 | 0.00 | 0.00 | 0.00 | 73 | 1015.9 |
| 20260901165814 | 17 | 242 | 11.3 | 19.3 | 0.00 | 0.00 | 0.00 | 73 | 1015.8 |
| 20260901165313 | 17 | 245 | 14.5 | 24.1 | 0.00 | 0.00 | 0.00 | 73 | 1015.8 |
| 20260901164814 | 17 | 261 | 9.7 | 20.9 | 0.00 | 0.00 | 0.00 | 73 | 1016.0 |
| 20260901163314 | 17 | 248 | 11.3 | 19.3 | 0.00 | 0.00 | 0.00 | 72 | 1015.8 |
| 20260901162814 | 17 | 245 | 12.9 | 22.5 | 0.00 | 0.00 | 0.00 | 72 | 1015.8 |
| 20260901162314 | 17 | 248 | 12.9 | 29.0 | 0.00 | 0.00 | 0.00 | 71 | 1015.9 |
| 20260901161814 | 17 | 252 | 12.9 | 19.3 | 0.00 | 0.00 | 0.00 | 71 | 1016.2 |
| 20260901161314 | 17 | 241 | 17.7 | 33.8 | 0.00 | 0.00 | 0.00 | 72 | 1016.0 |
| 20260901160814 | 17 | 242 | 14.5 | 29.0 | 0.00 | 0.00 | 0.00 | 71 | 1016.2 |
| 20260901160314 | 18 | 242 | 12.9 | 24.1 | 0.00 | 0.00 | 0.00 | 71 | 1016.1 |
| 20260901155815 | 18 | 242 | 12.9 | 20.9 | 0.00 | 0.00 | 0.00 | 71 | 1015.9 |
| 20260901155313 | 18 | 246 | 11.3 | 25.7 | 0.00 | 0.00 | 0.00 | 70 | 1015.8 |
| 20260901154814 | 18 | 247 | 12.9 | 24.1 | 0.00 | 0.00 | 0.00 | 69 | 1015.9 |
| 20260901154314 | 18 | 248 | 11.3 | 25.7 | 0.00 | 0.00 | 0.00 | 68 | 1016.0 |
| 20260901153814 | 18 | 252 | 11.3 | 22.5 | 0.00 | 0.00 | 0.00 | 70 | 1016.0 |
| 20260901153314 | 17 | 252 | 11.3 | 22.5 | 0.00 | 0.00 | 0.00 | 71 | 1016.1 |
| 20260901152814 | 17 | 253 | 12.9 | 24.1 | 0.00 | 0.00 | 0.00 | 70 | 1016.1 |
| 20260901151813 | 18 | 239 | 9.7 | 20.9 | 0.00 | 0.00 | 0.00 | 69 | 1016.1 |
| 20260901150814 | 17 | 238 | 14.5 | 27.4 | 0.00 | 0.00 | 0.00 | 70 | 1015.9 |
| 20260901150314 | 17 | 233 | 12.9 | 22.5 | 0.00 | 0.00 | 0.00 | 71 | 1015.9 |
| 20260901145813 | 17 | 247 | 8.0 | 19.3 | 0.00 | 0.00 | 0.00 | 72 | 1015.9 |
| 20260901144813 | 17 | 254 | 8.0 | 19.3 | 0.00 | 0.00 | 0.00 | 70 | 1016.0 |
| 20260901143314 | 18 | 245 | 9.7 | 19.3 | 0.00 | 0.00 | 0.00 | 69 | 1016.2 |
| 20260901142813 | 18 | 247 | 9.7 | 22.5 | 0.00 | 0.00 | 0.00 | 70 | 1016.2 |
| 20260901141813 | 18 | 243 | 9.7 | 22.5 | 0.00 | 0.00 | 0.00 | 71 | 1016.3 |
| 20260901141314 | 18 | 238 | 9.7 | 20.9 | 0.00 | 0.00 | 0.00 | 70 | 1016.2 |
| 20260901140814 | 18 | 247 | 9.7 | 19.3 | 0.00 | 0.00 | 0.00 | 70 | 1016.2 |
| 20260901140314 | 18 | 249 | 11.3 | 19.3 | 0.00 | 0.00 | 0.00 | 70 | 1016.1 |
| 20260901135813 | 18 | 259 | 11.3 | 24.1 | 0.00 | 0.00 | 0.00 | 70 | 1016.2 |
| 20260901135314 | 18 | 243 | 9.7 | 24.1 | 0.00 | 0.00 | 0.00 | 69 | 1016.0 |
| 20260901134814 | 18 | 248 | 12.9 | 22.5 | 0.00 | 0.00 | 0.00 | 67 | 1016.0 |
| 20260901134314 | 18 | 239 | 11.3 | 20.9 | 0.00 | 0.00 | 0.00 | 67 | 1016.1 |
| 20260901132314 | 18 | 229 | 9.7 | 19.3 | 0.00 | 0.00 | 0.00 | 67 | 1016.1 |
| 20260901131814 | 18 | 231 | 9.7 | 35.4 | 0.00 | 0.00 | 0.00 | 67 | 1016.2 |
| 20260901131314 | 18 | 229 | 14.5 | 32.2 | 0.00 | 0.00 | 0.00 | 65 | 1016.2 |
| 20260901130813 | 18 | 215 | 9.7 | 27.4 | 0.00 | 0.00 | 0.00 | 68 | 1016.2 |
| 20260901130314 | 18 | 257 | 11.3 | 19.3 | 0.00 | 0.00 | 0.00 | 68 | 1016.2 |
| 20260901125313 | 18 | 242 | 11.3 | 19.3 | 0.00 | 0.00 | 0.00 | 68 | 1016.2 |
| 20260901124813 | 18 | 218 | 9.7 | 19.3 | 0.00 | 0.00 | 0.00 | 68 | 1016.2 |
| 20260901124314 | 18 | 226 | 9.7 | 29.0 | 0.00 | 0.00 | 0.00 | 69 | 1016.2 |
| 20260901123814 | 18 | 220 | 11.3 | 29.0 | 0.00 | 0.00 | 0.00 | 68 | 1016.3 |
| 20260901123313 | 18 | 222 | 11.3 | 25.7 | 0.00 | 0.00 | 0.00 | 68 | 1016.3 |
| 20260901122814 | 18 | 217 | 8.0 | 19.3 | 0.00 | 0.00 | 0.00 | 69 | 1016.3 |
| 20260901122314 | 17 | 235 | 8.0 | 20.9 | 0.00 | 0.00 | 0.00 | 70 | 1016.3 |
| 20260901121814 | 17 | 258 | 9.7 | 19.3 | 0.00 | 0.00 | 0.00 | 70 | 1016.4 |
| 20260901121314 | 17 | 235 | 9.7 | 19.3 | 0.00 | 0.00 | 0.00 | 70 | 1016.4 |
| 20260901120814 | 17 | 234 | 6.4 | 14.5 | 0.00 | 0.00 | 0.00 | 70 | 1016.3 |
| 20260901120313 | 17 | 229 | 8.0 | 19.3 | 0.00 | 0.00 | 0.00 | 71 | 1016.4 |
| 20260901115814 | 17 | 233 | 9.7 | 19.3 | 0.00 | 0.00 | 0.00 | 71 | 1016.5 |
| 20260901114313 | 17 | 247 | 11.3 | 19.3 | 0.00 | 0.00 | 0.00 | 71 | 1016.4 |
| 20260901113814 | 17 | 254 | 8.0 | 16.1 | 0.00 | 0.00 | 0.00 | 71 | 1016.4 |
| 20260901113313 | 17 | 232 | 9.7 | 16.1 | 0.00 | 0.00 | 0.00 | 71 | 1016.5 |
| 20260901112814 | 17 | 222 | 11.3 | 22.5 | 0.00 | 0.00 | 0.00 | 70 | 1016.4 |
| 20260901112313 | 17 | 218 | 11.3 | 20.9 | 0.00 | 0.00 | 0.00 | 70 | 1016.4 |
| 20260901111313 | 17 | 220 | 11.3 | 20.9 | 0.00 | 0.00 | 0.00 | 68 | 1016.3 |
| 20260901110814 | 17 | 239 | 9.7 | 19.3 | 0.00 | 0.00 | 0.00 | 69 | 1016.3 |
| 20260901110314 | 17 | 225 | 9.7 | 19.3 | 0.00 | 0.00 | 0.00 | 70 | 1016.3 |
| 20260901105814 | 17 | 249 | 11.3 | 20.9 | 0.00 | 0.00 | 0.00 | 69 | 1016.4 |
| 20260901105314 | 17 | 242 | 11.3 | 24.1 | 0.00 | 0.00 | 0.00 | 69 | 1016.3 |
| 20260901104813 | 17 | 236 | 11.3 | 20.9 | 0.00 | 0.00 | 0.00 | 69 | 1016.4 |
| 20260901104313 | 17 | 223 | 9.7 | 19.3 | 0.00 | 0.00 | 0.00 | 70 | 1016.4 |
| 20260901103814 | 17 | 252 | 11.3 | 20.9 | 0.00 | 0.00 | 0.00 | 71 | 1016.3 |
| 20260901103314 | 17 | 238 | 9.7 | 19.3 | 0.00 | 0.00 | 0.00 | 70 | 1016.4 |
| 20260901102814 | 17 | 229 | 11.3 | 22.5 | 0.00 | 0.00 | 0.00 | 69 | 1016.5 |
| 20260901102314 | 17 | 242 | 8.0 | 19.3 | 0.00 | 0.00 | 0.00 | 69 | 1016.6 |
| 20260901101813 | 17 | 232 | 9.7 | 24.1 | 0.00 | 0.00 | 0.00 | 69 | 1016.6 |
| 20260901101313 | 16 | 249 | 11.3 | 24.1 | 0.00 | 0.00 | 0.00 | 69 | 1016.5 |
| 20260901100814 | 16 | 250 | 11.3 | 20.9 | 0.00 | 0.00 | 0.00 | 69 | 1016.6 |
| 20260901100313 | 17 | 229 | 11.3 | 27.4 | 0.00 | 0.00 | 0.00 | 68 | 1016.6 |
| 20260901094814 | 17 | 221 | 9.7 | 22.5 | 0.00 | 0.00 | 0.00 | 68 | 1016.4 |
| 20260901094313 | 17 | 212 | 12.9 | 27.4 | 0.00 | 0.00 | 0.00 | 68 | 1016.4 |